Weather in Leuven

Belgium     50°52′56″N   4°41′48″E
temp.,
°C
wind,
m/s
gust,
m/s
humid.,
%
clouds,
%
prec.,
mm/h
press.,
hPa
HPBL,
m
12 may, wed
wed1223:00+11nw2593100 1.1 1011180
02:00+11wsw3590100 1.2 1011150
05:00+7wsw35944 0.0 101297
08:00+9sw36895 0.0 1012250
11:00+14wsw336124 0.0 10121170
14:00+14sw3372100 1.4 1011649
17:00+15sw3359100 1.4 10111364
20:00+14s247076 1.5 1010113
13 may, thu
thu1323:00+9s22805 0.0 101010
02:00+7s228662 0.0 101013
05:00+6se228855 0.0 100914
08:00+10sse237663 0.0 1008134
11:00+15sse225896 0.0 1008948
14:00+16ssw226098 1.0 10071187
17:00+10sw4794100 2.8 1007368
20:00+11wsw248997 3.9 1007249
14 may, fri
fri1423:00+10w118687 0.0 100712
02:00+7ssw22901 0.0 100726
05:00+6s22925 0.0 100718
08:00+9s34886 0.0 1007198
11:00+13sw3475100 0.1 1008892
14:00+15wsw3466100 0.9 10081343
17:00+16sw345084 0.0 10071901
20:00+12sw478092 0.8 1007243
15 may, sat
sat1523:00+9wsw229229 0.4 100827
02:00+8nw239792 1.0 1008113
05:00+8wsw2397100 0.0 1007109
08:00+9w2393100 1.1 1008286
11:00+11wsw128287 0.4 1008651
14:00+14ssw337193 2.1 10071159
17:00+14ssw3469100 1.8 10061082
20:00+12sw3686100 3.6 1006221
16 may, sun
sun1623:00+10sw3697100 2.9 1007236
02:00+9w3598100 4.6 1007271
05:00+9wsw369698 0.7 1007342
08:00+9sw589296 0.7 1008317
11:00+12sw57776 0.1 1008773
14:00+15wsw6760100 1.1 10071820
17:00+15ssw456347 0.8 10071326
20:00+13ssw4777100 1.3 1006346